Regional Weather Roundup
Issued by NWS

Home | Current Version | Previous Version | Graphics & Text | Print | Product List | Glossary On
Versions: 1 2 3 4 5 6 7 8 9 10 11 12 13 14 15 16 17 18 19 20 21 22 23 24 25 26 27 28 29 30 31 32 33 34 35 36 37 38 39 40 41 42 43 44 45 46 47 48 49 50
000
ASUS43 KIND 290809
RWRIN

WEATHER ROUNDUP FOR INDIANA
NATIONAL WEATHER SERVICE INDIANAPOLIS IN
400 AM EDT TUE JUL 29 2014

NOTE: "FAIR" INDICATES FEW OR NO CLOUDS BELOW 12,000 FEET WITH NO
SIGNIFICANT WEATHER AND/OR OBSTRUCTIONS TO VISIBILITY.

* - STATION DOES NOT REPORT WEATHER SUCH AS PRECIPITATION OR FOG.

+ - STATION NOT QUALITY CONTROLLED BY THE NATIONAL WEATHER SERVICE.
    USE DATA WITH CAUTION...ESPECIALLY DEWPOINT AND RELATIVE
    HUMIDITY OBSERVATIONS.

INZ001>003-010>013-019-020-290900-
NORTHWEST INDIANA

CITY           SKY/WX    TMP DP  RH WIND       PRES   REMARKS
GARY /AIRPORT/ CLEAR     58  55  89 CALM      30.05S
KNOX *+        CLEAR     51  49  92 SW3       30.03S
LA PORTE +     PTCLDY    51  51 100 CALM      30.04S
MICHIGAN CITY+ CLEAR     52  52 100 CALM      30.04F
MONTICELLO +   CLOUDY    54  53  94 CALM      30.04F
RENSSELAER +   MOCLDY    54  54 100 CALM      30.05F
VALPARAISO     CLEAR     52  50  93 CALM      30.04F

$$

LMZ046-743>745-290900-
SOUTHERN LAKE MICHIGAN

STATION/POSITION TIME  TEMP WIND        PRES
                       AIR  DIR/SP/G
                 (UTC) (F)  (DEG/KT/KT) (MB)
MICHIGAN CITY    0800   59  130/  4/  5   N/A

$$

INZ004-005-014>016-021>024-290900-
NORTH CENTRAL INDIANA

CITY           SKY/WX    TMP DP  RH WIND       PRES   REMARKS
GOSHEN         CLEAR     50  47  89 CALM      30.03F
LOGANSPORT +   CLOUDY    54  50  87 CALM      30.05F
PERU/GRISSOM   CLOUDY    54  53  96 W2        30.04S
ROCHESTER +    CLEAR     54  50  87 CALM      30.05S
SOUTH BEND     CLEAR     53  47  79 CALM      30.03F
WARSAW +       CLEAR     46  46 100 CALM      30.04S

$$

INZ006>009-017-018-025>027-290900-
NORTHEAST INDIANA

CITY           SKY/WX    TMP DP  RH WIND       PRES   REMARKS
ANGOLA *+      CLEAR     48  46  93 CALM      30.02F
AUBURN +       PTCLDY    50  46  87 W3        30.03S
FORT WAYNE     PTCLDY    50  48  93 CALM      30.04S
HUNTINGTON +   CLEAR     49  48  96 CALM      30.03S

$$

INZ028-029-035-036-043>045-051>053-290900-
WEST CENTRAL INDIANA

CITY           SKY/WX    TMP DP  RH WIND       PRES   REMARKS
GREENCASTLE +  MOCLDY    52  50  93 CALM      30.07S
LAFAYETTE      CLOUDY    52  51  97 W3        30.05F
TERRE HAUTE    CLEAR     52  49  89 NW3       30.07F

$$

INZ030>032-037>040-046>048-054>057-064-065-290900-
CENTRAL INDIANA

CITY           SKY/WX    TMP DP  RH WIND       PRES   REMARKS
CP ATTERBURY + CLEAR     48  46  93 CALM      30.05S
INDIANAPOLIS   PTCLDY    53  48  83 W6        30.04S
-EAGLE CREEK   PTCLDY    55  48  77 NW7       30.04F
KOKOMO *+      MOCLDY    54  48  82 NW5       30.04F
MARION +       PTCLDY    47  46  97 CALM      30.04S
MT COMFORT *+  PTCLDY    50 N/A N/A NW3       30.04S
SHELBYVILLE    CLEAR     52  48  86 CALM      30.03F
ZIONSVILLE +   MOCLDY    54  48  78 NW3       30.05F

$$

INZ033-034-041-042-049-050-058-059-290900-
EAST CENTRAL INDIANA

CITY           SKY/WX    TMP DP  RH WIND       PRES   REMARKS
MUNCIE         PTCLDY    50  47  89 CALM      30.03F

$$

INZ060-061-067>069-081>083-085>088-290900-
SOUTHWEST INDIANA

CITY           SKY/WX    TMP DP  RH WIND       PRES   REMARKS
EVANSVILLE     CLEAR     59  51  75 CALM      30.08S
WASHINGTON +   CLEAR     54  51  90 NW6       30.05F

$$

INZ062-063-066-070>080-084-089>092-290900-
SOUTH CENTRAL AND SOUTHEAST INDIANA

CITY           SKY/WX    TMP DP  RH WIND       PRES   REMARKS
BEDFORD +      CLEAR     54  46  76 CALM      30.06
BLOOMINGTON    PTCLDY    53  48  83 CALM      30.06F
NORTH VERNON + CLEAR     52  52 100 CALM      30.04

$$



USA.gov is the U.S. government's official web portal to all federal, state and local government web resources and services.